www.pogodaiklimat.ru

Погода и климат >> Архив погоды >> Россия >> Красноярский край >> Ужур


ПОГОДА в Ужуре

  • Прогноз погоды в Ужуре
  • Монитор погоды в Ужуре

АРХИВ ПОГОДЫ в Ужуре

Время (UTC), дата Ветер
(напр.,м/с)
 
Видим.   Явления Облачность Т
(С)
Тd
(С)
f
(%)
Тe
(С)
Тes
(С)
Комфортность P
(гПа)
Po
(гПа)
Тmin
(С)
Tmax
(С)
R
(мм)
R24
(мм)
S
(см)
18 14.05 штиль 0 10 км 6/0
[Ci fib]
-3.0 -3.8 94 -4 -4 1012.8 964.6
21 14.05 штиль 0 10 км 8/4 600 м
[Cb calv Cs]
-5.7 -2.6 100 -7 -7 1011.9 963.3
00 15.05 С 1 4000 м дымка 8/4 600 м
[Cu med, cong Cs]
-4.0 -4.2 99 -7 -6 1011.1 962.9 -6.2 0
03 15.05 С 4 10 км 9/8 600 м
[Cu med, cong Cs]
+3.6 -2.0 67 -1 +1 1010.2 963.3
06 15.05 СЗ 4
{12}
10 км 9/9 600 м
[Cb calv]
+3.6 -2.5 64 -1 +1 1011.4 964.4
09 15.05 ЮЗ 2
{11}
10 км {ливн. осадки} 9/8 600 м
[Cb calv Ci fib]
+5.6 -3.0 54 +4 +5 1011.5 964.9
12 15.05 З 4 10 км {ливн. осадки} 9/8 600 м
[Cb calv Ci fib]
+4.4 -3.7 56 +1 +1 1013.3 966.4 +7.9 0.0
15 15.05 СЗ 2 10 км 9/3 600 м
[Cu med, cong Cs]
+2.7 -3.1 66 0 0 1016.2 968.9
18 15.05 СЗ 5 10 км 9/0
[Cs]
+1.9 -3.0 70 -3 -3 1017.6 970.1
21 15.05 ЮВ 1 10 км 9/0
[Cs]
-0.6 -3.1 83 -3 -3 1018.4 970.4
00 16.05 СЗ 3 20 км 9/0
[Cs]
+3.8 -3.2 60 +1 +2 1018.8 971.5 -1.9
03 16.05 СЗ 5 20 км 9/3 600 м
[Cu med, cong Ci fib]
+7.1 -3.4 47 +4 +7 1019.1 972.3
06 16.05 СЗ 4
{10}
20 км 8/3 600 м
[Cu med, cong Ci fib]
+9.4 -4.1 38 +7 +13 1018.4 972.0
09 16.05 СЗ 4
{10}
20 км 8/4 600 м
[Cu med, cong Ci fib]
+9.6 -5.0 35 +7 +11 1018.5 972.2
12 16.05 С 6
{11}
20 км 4/3 600 м
[Cu hum Ci fib]
+9.4 -5.7 34 +6 +7 1018.8 972.4 +10.5
15 16.05 штиль 0 10 км 1/0
[Ci fib]
+3.0 -6.9 48 +3 +3 1021.0 973.4
18 16.05 Ю 1 10 км 1/0
[Ci fib]
-3.7 -10.0 62 -6 -6 1022.6 973.8
21 16.05 Ю 1 10 км ясно -6.2 -10.7 70 -8 -8 1023.2 974.0
00 17.05 Ю 1 20 км 3/0
[Cs]
-1.7 -8.2 61 -3 -1 1023.3 974.8 -7.7
03 17.05 З 2 20 км 8/8 600 м
[Cu med, cong]
+9.6 -5.4 34 +9 +11 1020.7 974.3
06 17.05 З 1
{12}
20 км 9/9 600 м
[Cb calv]
+7.6 -4.5 42 +7 +9 1021.1 974.4
09 17.05 СЗ 4
{11}
10 км 10/10 600 м
[Cb calv]
+7.6 -1.0 54 +5 +5 1021.5 974.7
12 17.05 СЗ 3
{11}
20 км 9/8 600 м
[Cu med, cong Ci fib]
+9.5 -3.1 41 +8 +8 1020.9 974.4 +10.7
15 17.05 В 1 10 км 9/9 600 м
[Cu med, cong]
+4.6 -3.2 57 +4 +4 1023.0 975.7
18 17.05 ЮВ 2 10 км 9/0
[Ci fib]
-2.2 -7.5 67 -6 -6 1024.8 976.2
21 17.05 В 1 10 км 4/3 600 м
[Cu med, cong Ci fib]
-4.6 -8.7 73 -7 -7 1025.0 976.0
00 18.05 ЮВ 2 20 км 9/0
[Cs]
+2.8 -3.0 66 0 +2 1023.8 976.1 -4.8
03 18.05 Ю 4 20 км 9/4 600 м
[Cu med, cong Cs]
+9.6 -1.6 45 +7 +11 1021.3 974.9
06 18.05 Ю 4
{10}
20 км 9/9 600 м
[Cu med, cong Cs]
+11.1 -2.7 38 +9 +10 1018.9 972.8
09 18.05 Ю 4
{12}
20 км 9/9 600 м
[Cu med, cong]
+12.5 -3.3 33 +11 +12 1016.4 970.6
12 18.05 Ю 2 20 км 8/6 600 м
[Cu med, cong Ci fib]
+12.8 -3.6 32 +12 +13 1015.0 969.3 +13.5
15 18.05 Ю 2 10 км 9/9 600 м
[Cb calv]
+8.1 -3.6 43 +7 +7 1014.9 968.5
18 18.05 Ю 1 10 км 8/6 600 м
[Cb calv Cs]
+4.6 -5.2 49 +4 +4 1014.7 967.7
21 18.05 Ю 2 10 км 8/8 600 м
[Cb calv]
+2.5 -5.7 55 -0 -0 1014.0 966.7
00 19.05 Ю 2 20 км 8/0
[Ci fib]
+5.9 -3.7 50 +4 +6 1012.7 966.0 +2.3
03 19.05 Ю 4 20 км 4/0
[Ci fib]
+15.4 -1.4 32 +15 +21 1009.1 964.2
06 19.05 Ю 6
{12}
50 км 4/0
[Ci fib]
+22.8 -0.0 22 +22 +27 комфорт 1005.6 961.9
09 19.05 ЮЗ 6
{15}
20 км 8/0
[Cs]
+23.7 -0.1 21 +23 +26 комфорт 1004.2 960.7
12 19.05 ЮЗ 6
{14}
10 км 6/0
[Ci fib]
+22.7 +0.7 23 +22 +23 комфорт 1004.5 960.8 +24.8
15 19.05 ЮВ 2
{15}
10 км 1/0
[Ci fib]
+14.0 +0.7 40 +14 +14 1006.7 961.6
18 19.05 Ю 2 10 км ясно +8.5 -1.5 49 +7 +7 1007.5 961.6
21 19.05 С 2 10 км 9/6 600 м
[Cu med, cong Ci fib]
+9.4 +0.6 54 +8 +8 1007.5 961.6
00 20.05 Ю 1 10 км 9/8 600 м
[Cu med, cong Cs]
+12.3 +4.2 58 +13 +13 1007.6 962.2 +8.1
03 20.05 Ю 4 20 км 9/9 600 м
[Cu med, cong]
+16.4 +7.2 54 +16 +17 1006.2 961.6
06 20.05 Ю 6
{11}
20 км 9/9 600 м
[Cu med, cong]
+17.6 +7.8 53 +17 +18 1005.2 960.8
09 20.05 З 3
{12}
20 км 8/8 600 м
[Cu med, cong]
+18.6 +6.1 44 +19 +21 1005.2 960.9
12 20.05 ЮЗ 3
{11}
20 км 3/3 600 м
[Cu med, cong]
+19.1 +6.4 43 +20 +21 1005.3 961.1 +20.4
15 20.05 Ю 4 10 км 8/1 600 м
[Cu med, cong Cs]
+14.2 +5.0 54 +13 +13 1005.5 960.5
18 20.05 Ю 2 10 км 9/9 600 м
[Cu med, cong]
+11.0 +4.3 63 +10 +10 1004.5 959.1
21 20.05 Ю 1 10 км {ливн. осадки} 9/8 600 м
[Cu med, cong Cs]
+8.3 +5.2 81 +8 +8 1003.0 957.2
00 21.05 ЮВ 3 20 км {ливн. осадки} 9/9 600 м
[Cb calv]
+8.8 +6.6 86 +6 +6 999.4 953.9 +7.3 0.6
03 21.05 Ю 3 20 км {ливн. осадки} 9/9 600 м
[Cb calv]
+11.7 +10.2 91 +10 +11 997.0 952.2
06 21.05 З 8
{15}
10 км {ливн. осадки} 9/9 600 м
[Cu med, cong]
+17.0 +6.9 51 +16 +16 997.7 953.5
09 21.05 СЗ 4
{15}
20 км 9/6 600 м
[Cu med, cong Ci fib]
+13.7 +5.4 57 +12 +15 1000.5 955.7
12 21.05 З 4
{10}
20 км 9/8 600 м
[Cb calv Ci fib]
+13.0 +3.1 51 +12 +12 1002.1 957.1 +18.4 6
15 21.05 ЮЗ 1 10 км 9/9 600 м
[Cb calv]
+9.3 +3.0 65 +9 +9 1003.3 957.7

 

Местоположение метеостанции Ужур (Красноярский край, Россия): широта 55.30 долгота 89.82 высота над уровнем моря 387 м.

В архиве по умолчанию представлена погода в Ужуре за последнюю неделю. Архивные данные за месяц целиком и за предыдущие месяцы, начиная с января 2011 года, Вы можете получить, выбрав интересующий диапазон дат из раскрывающегося списка и нажав кнопку "Ввод!".


*Определитесь, кто Вы:
робот инопланетянин человек

Внимание! Время в таблицах - всемирное. Для получения местного времени необходимо прибавить поправку, которая равна 7 ч.

Смотрите также архив погоды в соседних городах и на ближайших метеорологических станциях:

Погода в Копьево-2 (Хакасия, Россия) (30 км)
Погода в Шарыпово (Красноярский край, Россия) (47 км)
Погода в Светлолобово (Красноярский край, Россия) (68 км)
Погода в Назарово (Красноярский край, Россия) (87 км)
Погода в Ненастной (Хакасия, Россия) (88 км)
Погода в Шире (Хакасия, Россия) (89 км)
Погода в Первомайском (Хакасия, Россия) (104 км)
Погода в Боготоле (Красноярский край, Россия) (105 км)
Погода в Тисуле (Кемеровская область, Россия) (108 км)
Погода в Коммунаре (Хакасия, Россия) (113 км)

Пояснения к столбцам:

Ветер - указаны скорость ветра в м/с - средняя за 10 мин, порывы в срок и между сроками (в фигурных скобках) и направление, откуда дует ветер: С - северный, СВ - северо-восточный, В - восточный, ЮВ - юго-восточный, Ю - южный, ЮЗ - юго-западный, З - западный, СЗ - северо-западный.
Видимость - горизонтальная дальность видимости в метрах или километрах. При видимости от 1 до 10 км при отсутствии осадков обычно наблюдается дымка, при ухудшении видимости до 1 км и менее - туман. В сухую погоду видимость может ухудшаться дымом, пылью или мглою.
Явления - указаны атмосферные явления, наблюдавшиеся в срок или в последний час перед сроком; фигурными скобками обозначены явления, наблюдавшиеся между сроками (за 1-3 часа до срока); квадратными скобками обозначены град или гололедные отложения с указанием их диаметра в мм.
Облачность - указаны через наклонную черту общая и нижняя облачность в баллах и высота нижней границы облаков в метрах; квадратными скобками обозначены формы облаков: Ci - перистые, Cs - перисто-слоистые, Cc - перисто-кучевые, Ac - высококучевые, As - высокослоистые, Sc - слоисто-кучевые, Ns - слоисто-дождевые, Cu - кучевые, Cb - кучево-дождевые. Подробнее классификацию облаков см. в Атласе облаков (PDF).
T - Температура воздуха - температура, измеренная на высоте 2 м над землей.
Td - Температура точки росы - температура, при понижении до которой содержащийся в воздухе водяной пар достигнет насыщения.
f - Относительная влажность воздуха - влажноcть воздуха, измеренная на высоте 2 м над землей.
Te - Эффективная температура - температура, которую ощущает одетый по сезону человек в тени. Характеристика душности погоды. При расчете учитывается влияние влажности воздуха и скорости ветра на теплоощущения человека.
Tes - Эффективная температура на солнце - температура, которую ощущает человек, с поправкой на солнечный нагрев. Характеристика знойности погоды. Зависит от высоты солнца над горизонтом, облачности и скорости ветра. Ночью, в пасмурную погоду, а также при ветре 12 м/с и более поправка равна нулю.
P - Атмосферное давление - приведенное к уровню моря атмосферное давление.
Po - Атмосферное давление - измеренное на уровне метеостанции атмосферное давление.
Tmin - Минимальная температура - минимум температуры воздуха на высоте 2 м над землей.
Tmax - Максимальная температура - максимум температуры воздуха на высоте 2 м над землей.
R - Количество осадков - Количество выпавших осадков за период времени, мм. При наведении курсора мыши на число - период времени, за который выпало указанное количество осадков.
R24 - Количество осадков - Количество выпавших осадков за 24 часа, мм.
S - Снежный покров - Высота снежного покрова, см. При наведении курсора мыши на число - состояние снежного покрова и степень покрытия местности в баллах.